Regional Weather Roundup
Issued by NWS Upton, NY

Current Version | Previous Version | Graphics & Text | Print | Product List | Glossary Off
Versions: 1 2 3 4 5 6 7 8 9 10 11 12 13 14 15 16 17 18 19 20 21 22 23 24 25 26 27 28 29 30 31 32 33 34 35 36 37 38 39 40 41 42 43 44 45 46 47 48 49 50

000
ASUS41 KOKX 191005
RWROKX

REGIONAL WEATHER ROUNDUP
NATIONAL WEATHER SERVICE NEW YORK NY
500 AM EST FRI DEC 19 2014

NOTE: "FAIR" INDICATES FEW OR NO CLOUDS BELOW 12,000 FEET WITH NO
SIGNIFICANT WEATHER AND/OR OBSTRUCTIONS TO VISIBILITY.

NYZ071-072-176-178-NJZ106-104-191100-
NEW YORK CITY METRO AREA


CITY           SKY/WX    TMP DP  RH WIND       PRES   REMARKS
CENTRAL PARK   CLOUDY    37  22  54 W10       29.99S WCI  30
LAGUARDIA APRT MOCLDY    37  25  61 NW15      29.97S WCI  28
KENNEDY INTL   PTCLDY    38  24  57 NW17      29.99S WCI  28
NEWARK/LIBERTY CLOUDY    37  25  61 NW9       29.99R WCI  30
BRNX BOT. GARD   N/A    N/A N/A N/A W8        29.99R
TETERBORO      CLOUDY    37  23  56 NW8       29.97S WCI  31
$$

NYZ177-179-078>081-191100-
LONG ISLAND NEW YORK

CITY           SKY/WX    TMP DP  RH WIND       PRES   REMARKS
FARMINGDALE    MOCLDY    36  25  64 W6        29.97R WCI  31
ISLIP          CLOUDY    36  26  67 NW8       29.94R WCI  30
SHIRLEY        CLOUDY    36  26  67 W5        29.96R WCI  32
WESTHAMPTON    CLOUDY    34  28  79 W5        29.96R WCI  30
MONTAUK POINT    N/A     38  26  62 NW14G22   29.93R WCI  30
$$

NYZ052-065-067-191100-
HUDSON VALLEY

CITY           SKY/WX    TMP DP  RH WIND       PRES   REMARKS
WHITE PLAINS   MOCLDY    35  24  64 NW13      29.94R WCI  26
NEWBURGH       CLOUDY    34  25  69 NW12      29.95F WCI  25
MONTGOMERY     CLOUDY    35  22  58 W12       29.95R WCI  27
POUGHKEEPSIE   CLOUDY    36  24  62 NW5       29.95S WCI  32
ALBANY         CLOUDY    32  21  64 NW12G21   29.96S WCI  23
$$

NJZ001-105-106-008-010-013-015-019>022-104-191100-
NEW JERSEY

CITY           SKY/WX    TMP DP  RH WIND       PRES   REMARKS
NEWARK/LIBERTY CLOUDY    37  25  61 NW9       29.99R WCI  30
TETERBORO      CLOUDY    37  23  56 NW8       29.97S WCI  31
CALDWELL       CLOUDY    36  22  56 NW8       29.99R WCI  30
MORRISTOWN       N/A     39  25  56 NW7       29.99R WCI  34
SOMERVILLE     CLOUDY    37  23  56 NW6       29.98S WCI  32
SUSSEX         CLOUDY    35  24  64 VRB6      29.97S WCI  30
ANDOVER          N/A     34  24  67 VRB5      29.97S WCI  30
TRENTON        CLOUDY    36  24  62 W5        30.00S WCI  32
MILLVILLE      CLOUDY    35  26  69 W9        30.05S WCI  28
ATLANTIC CITY  CLOUDY    35  25  66 W10       30.03S WCI  27
WRIGHTSTOWN    CLOUDY    36  25  65 W8        29.99S WCI  30
TOMS RIVER     CLOUDY    34  27  75 W7        30.01R WCI  28
BELMAR         CLOUDY    34  21  60 W7        29.99S WCI  28
$$

PAZ047>061-062-071-191100-
EASTERN PENNSYLVANIA

CITY           SKY/WX    TMP DP  RH WIND       PRES   REMARKS
PHILADELPHIA   CLOUDY    37  25  61 W12       30.05S WCI  29
ALLENTOWN      CLOUDY    36  23  59 W7        30.00F WCI  30
SCRANTON       CLOUDY    32  27  81 NW13      29.99R WCI  22
$$

CTZ002-004>006-009-010-012-RIZ004-006-007-MAZ004-011-015-191100-
SOUTHERN NEW ENGLAND
 IN CT

CITY           SKY/WX    TMP DP  RH WIND       PRES   REMARKS
BRADLEY INTL   CLOUDY    35  20  54 NW15      29.93R WCI  25
HARTFORD       CLOUDY    35  20  54 NW10G23   29.95R WCI  27
DANBURY        CLOUDY    34  23  64 W5        29.95R WCI  30
WTRBRY/OXFORD  CLOUDY    34  21  60 NW5       29.93R WCI  30
BRIDGEPORT     CLOUDY    37  27  67 W3        29.95R
MERIDEN        CLOUDY    35  21  56 N8G22     29.94S WCI  29
NEW HAVEN      CLOUDY    39  26  59 NW7       29.94S WCI  34
CHESTER        CLOUDY    34  23  64 NW12G24   29.92S WCI  25
GROTON         CLOUDY    34  26  72 NW10      29.92R WCI  26
WILLIMANTIC    CLOUDY    35  23  61 NW6       29.92R WCI  30

 IN RI

CITY           SKY/WX    TMP DP  RH WIND       PRES   REMARKS
PROVIDENCE     CLEAR     33  25  72 W8        29.90R WCI  26
BLOCK ISLAND   CLOUDY    36  25  64 NW14      29.90S WCI  27
WESTERLY       CLOUDY    35  26  69 NW7       29.92R WCI  29

 IN MA

CITY           SKY/WX    TMP DP  RH WIND       PRES   REMARKS
BOSTON         MOCLDY    35  24  64 W13       29.88R WCI  26
WORCESTER      CLOUDY    30  23  75 W12       29.85S WCI  20
WESTFIELD      CLOUDY    34  20  56 NW14G22   29.92S WCI  25
PROVINCETOWN   CLOUDY    37  27  65 NW18      29.86S WCI  27
NANTUCKET      CLOUDY    37  28  70 W10       29.87S WCI  30
$$

ANZ330-335-338-340-345-350-353-355-191100-
COASTAL MARINE OBSERVATIONS


STATION/POSITION TIME  SKY/WX   TEMP    WIND        PRES    VSBY  WAVE
                                AIR SEA DIR/SP/G                  HT/PER
                 (UTC)          (F)     (DEG/KT/KT) (MB)    (MI)  (FT/S)
NY HARB ENTRANCE 1000            39 47  310/ 17/ 21 1015.1          2/ 4
4S FIRE IS       1000               47                N/A           2/ 4
20S FIRE ISLAND  0900            41 49              1014.8          3/ 5
23SW MTP         1000                                 N/A           3/ 3
HUDSON CANYON    1000            42 56  310/ 16/ 19 1013.9
EXECUTION ROCKS  1000            38 42  300/ 12/ 16   N/A
WESTERN LI SOUND 1000            38     290/ 12/ 16   N/A           1
CENTRAL LI SOUND 0900            37 45  320/ 14/ 19   N/A           1/ 4
EASTERN LI SOUND NOT AVBL
ROBBINS REEF     1000            37     340/ 10/ 15 1014.0
$$


>>>>>>>>>>>>>>>>>>>>>>>>>>>> KEY <<<<<<<<<<<<<<<<<<<<<<<<<<<
>                                                          <
>     SKY/WX - SKY CONDITION/PRESENT WEATHER               <
>     TMP    - TEMPERATURE IN FAHRENHEIT                   <
>     DP     - DEWPOINT IN FAHRENHEIT                      <
>     RH     - RELATIVE HUMIDITY IN PERCENT                <
>     WIND   - DIRECTION AND SPEED IN MPH                  <
>     PRES   - MEAN SEA LEVEL PRESSURE IN INCHES OF HG     <
>     WCI    - WIND CHILL INDEX                            <
>     VSB    - VISIBILITY IN MILES                         <
>     HX     - HEAT INDEX                                  <
>     TC     - TEMPERATURE IN CELSIUS                      <
>     VRB    - VARIABLE WIND DIRECTION                     <
>                                                          <
>>>>>>>>>>>>>>>>>>>>>>>>>>>> KEY <<<<<<<<<<<<<<<<<<<<<<<<<<<





USA.gov is the U.S. government's official web portal to all federal, state and local government web resources and services.